timestamp,surface_pressure_avg,surface_temp_avg,battery_voltage,lat,long
2022-07-17 00:09:00+00:00,313.9563,16.1,12.09,47.84626,-54.09684
2022-07-17 00:19:00+00:00,325.6513,16.28,12.09,47.84626,-54.09684
2022-07-17 00:29:00+00:00,334.8013,16.3,12.09,47.84626,-54.09684
2022-07-17 00:39:00+00:00,339.4047,16.49,12.09,47.84626,-54.09684
2022-07-17 00:49:00+00:00,345.80300000000005,16.54,12.09,47.84626,-54.09684
2022-07-17 00:59:00+00:00,355.1379,15.99,12.09,47.84626,-54.09684
2022-07-17 01:09:00+00:00,360.5329,16.0,12.09,47.84626,-54.09684
2022-07-17 01:19:00+00:00,362.4063,15.94,12.09,47.84626,-54.09684
2022-07-17 01:29:00+00:00,366.6013,16.15,12.09,47.84626,-54.09684
2022-07-17 01:39:00+00:00,372.5546,16.2,12.09,47.84626,-54.09684
2022-07-17 01:49:00+00:00,373.8179,16.3,12.09,47.84626,-54.09684
2022-07-17 01:59:00+00:00,376.0046,16.36,12.09,47.84626,-54.09684
2022-07-17 02:09:00+00:00,380.7278,16.48,12.09,47.84626,-54.09684
2022-07-17 02:19:00+00:00,386.2278,16.62,12.09,47.84626,-54.09684
2022-07-17 02:29:00+00:00,384.5946,16.64,12.09,47.84626,-54.09684
2022-07-17 02:39:00+00:00,382.0662,16.5,12.09,47.84626,-54.09684
2022-07-17 02:49:00+00:00,386.3763,16.25,12.09,47.84626,-54.09684
2022-07-17 02:59:00+00:00,384.1746,16.51,12.09,47.84626,-54.09684
2022-07-17 03:09:00+00:00,377.3679,16.4,12.09,47.84626,-54.09684
2022-07-17 03:19:00+00:00,374.1813,16.26,12.09,47.84626,-54.09684
2022-07-17 03:29:00+00:00,370.8229,16.38,12.09,47.84626,-54.09684
2022-07-17 03:39:00+00:00,365.8895,16.88,12.09,47.84626,-54.09684
2022-07-17 03:49:00+00:00,360.6396,16.96,12.09,47.84626,-54.09684
2022-07-17 03:59:00+00:00,358.9196,17.08,12.09,47.84626,-54.09684
2022-07-17 04:09:00+00:00,351.8229,17.47,12.09,47.84626,-54.09684
2022-07-17 04:19:00+00:00,341.8046,17.52,12.09,47.84626,-54.09684
2022-07-17 04:29:00+00:00,333.6330000000001,17.57,12.09,47.84626,-54.09684
2022-07-17 04:39:00+00:00,322.6463,17.69,12.09,47.84626,-54.09684
2022-07-17 04:49:00+00:00,309.103,17.76,12.09,47.84626,-54.09684
2022-07-17 04:59:00+00:00,297.328,17.88,12.09,47.84626,-54.09684
2022-07-17 05:09:00+00:00,287.868,17.93,12.09,47.84626,-54.09684
2022-07-17 05:19:00+00:00,277.7581,18.1,12.09,47.84626,-54.09684
2022-07-17 05:29:00+00:00,265.6547,18.24,12.09,47.84626,-54.09684
2022-07-17 05:39:00+00:00,255.1547,18.3,12.09,47.84626,-54.09684
2022-07-17 05:49:00+00:00,244.8581,18.35,12.09,47.84626,-54.09684
2022-07-17 05:59:00+00:00,234.8198,18.39,12.09,47.84626,-54.09684
2022-07-17 06:09:00+00:00,224.1781,18.4,12.09,47.84626,-54.09684
2022-07-17 06:19:00+00:00,214.1714,18.4,12.09,47.84626,-54.09684
2022-07-17 06:29:00+00:00,207.8148,18.4,12.09,47.84626,-54.09684
2022-07-17 06:39:00+00:00,202.3064,18.4,12.09,47.84626,-54.09684
2022-07-17 06:49:00+00:00,194.4214,18.3,12.09,47.84626,-54.09684
2022-07-17 06:59:00+00:00,187.1331,18.2,12.09,47.84626,-54.09684
2022-07-17 07:09:00+00:00,183.6215,18.2,12.09,47.84626,-54.09684
2022-07-17 07:19:00+00:00,181.3865,18.2,12.09,47.84626,-54.09684
2022-07-17 07:29:00+00:00,178.2548,18.22,12.09,47.84626,-54.09684
2022-07-17 07:39:00+00:00,176.4598,18.25,12.09,47.84626,-54.09684
2022-07-17 07:49:00+00:00,177.3198,18.2,12.09,47.84626,-54.09684
2022-07-17 07:59:00+00:00,177.0198,18.2,12.09,47.84626,-54.09684
2022-07-17 08:09:00+00:00,174.9848,18.2,12.09,47.84626,-54.09684
2022-07-17 08:19:01+00:00,176.5081,18.2,12.09,47.84626,-54.09684
2022-07-17 08:29:01+00:00,181.0265,18.2,12.09,47.84626,-54.09684
2022-07-17 08:39:01+00:00,181.7398,18.24,12.09,47.84626,-54.09684
2022-07-17 08:49:01+00:00,182.0315,18.27,12.09,47.84626,-54.09684
2022-07-17 08:59:01+00:00,187.0798,18.27,12.09,47.84626,-54.09684
2022-07-17 09:09:01+00:00,191.6815,18.2,12.09,47.84626,-54.09684
2022-07-17 09:19:01+00:00,195.0198,18.2,12.09,47.84626,-54.09684
2022-07-17 09:29:01+00:00,198.5915,18.2,12.09,47.84626,-54.09684
2022-07-17 09:39:01+00:00,201.6798,18.2,12.09,47.84626,-54.09684
2022-07-17 09:49:01+00:00,200.9648,18.2,12.09,47.84626,-54.09684
2022-07-17 09:59:01+00:00,203.9014,18.1,12.09,47.84626,-54.09684
2022-07-17 10:09:01+00:00,211.0581,18.0,12.09,47.84626,-54.09684
2022-07-17 10:19:00+00:00,213.8648,18.06,12.09,47.84626,-54.09684
2022-07-17 10:29:00+00:00,214.3648,18.1,12.09,47.84626,-54.09684
2022-07-17 10:39:00+00:00,216.5948,17.9,12.09,47.84626,-54.09684
2022-07-17 10:49:00+00:00,220.6364,17.86,12.09,47.84626,-54.09684
2022-07-17 10:59:00+00:00,225.7081,18.0,12.09,47.84626,-54.09684
2022-07-17 11:09:00+00:00,230.8114,17.9,12.09,47.84626,-54.09684
2022-07-17 11:19:00+00:00,235.9914,17.8,12.17,47.84626,-54.09684
2022-07-17 11:29:00+00:00,240.3097,17.89,12.17,47.84626,-54.09684
2022-07-17 11:39:00+00:00,246.3681,17.8,12.17,47.84626,-54.09684
2022-07-17 11:49:00+00:00,253.0597,17.4,12.17,47.84626,-54.09684
2022-07-17 11:59:00+00:00,259.2081,17.2,12.17,47.84626,-54.09684
2022-07-17 12:09:00+00:00,267.4047,16.9,12.17,47.84626,-54.09684
2022-07-17 12:19:00+00:00,276.3514,16.5,12.33,47.84626,-54.09684
2022-07-17 12:29:00+00:00,282.8797,16.7,12.33,47.84626,-54.09684
2022-07-17 12:39:00+00:00,290.2247,16.6,12.33,47.84626,-54.09684
2022-07-17 12:49:00+00:00,299.5247,16.2,12.33,47.84626,-54.09684
2022-07-17 12:59:00+00:00,306.6497,16.1,12.33,47.84626,-54.09684
2022-07-17 13:09:00+00:00,308.4864,16.1,12.33,47.84626,-54.09684
2022-07-17 13:19:01+00:00,314.928,16.1,12.41,47.84626,-54.09684
2022-07-17 13:29:01+00:00,322.8746,16.16,12.41,47.84626,-54.09684
2022-07-17 13:39:01+00:00,328.093,16.37,12.41,47.84626,-54.09684
2022-07-17 13:49:01+00:00,329.4163,16.57,12.41,47.84626,-54.09684
2022-07-17 13:59:01+00:00,333.1896,16.6,12.41,47.84626,-54.09684
2022-07-17 14:09:01+00:00,337.8780000000001,16.69,12.41,47.84626,-54.09684
2022-07-17 14:19:01+00:00,338.4446,16.7,12.41,47.84626,-54.09684
2022-07-17 14:29:01+00:00,338.148,16.6,12.41,47.84626,-54.09684
2022-07-17 14:39:01+00:00,341.278,16.63,12.41,47.84626,-54.09684
2022-07-17 14:49:01+00:00,342.5262,16.72,12.41,47.84626,-54.09684
2022-07-17 14:59:01+00:00,339.5163,16.78,12.41,47.84626,-54.09684
2022-07-17 15:09:01+00:00,338.7396,16.8,12.41,47.84626,-54.09684
2022-07-17 15:19:01+00:00,339.8079,16.96,12.41,47.84626,-54.09684
2022-07-17 15:29:01+00:00,338.2662,17.17,12.41,47.84626,-54.09684
2022-07-17 15:39:01+00:00,335.4896,17.37,12.41,47.84626,-54.09684
2022-07-17 15:49:01+00:00,332.4564,17.49,12.41,47.84626,-54.09684
2022-07-17 15:59:01+00:00,330.9547,17.57,12.41,47.84626,-54.09684
2022-07-17 16:09:01+00:00,326.2064,17.6,12.41,47.84626,-54.09684
2022-07-17 16:19:01+00:00,319.6796,17.7,12.41,47.84626,-54.09684
2022-07-17 16:29:01+00:00,314.2497,17.7,12.41,47.84626,-54.09684
2022-07-17 16:39:01+00:00,310.7064,17.7,12.41,47.84626,-54.09684
2022-07-17 16:49:01+00:00,305.813,17.7,12.41,47.84626,-54.09684
2022-07-17 16:59:01+00:00,298.6047,17.7,12.41,47.84626,-54.09684
2022-07-17 17:09:01+00:00,290.813,17.7,12.41,47.84626,-54.09684
2022-07-17 17:19:01+00:00,281.898,17.7,12.33,47.84626,-54.09684
2022-07-17 17:29:01+00:00,273.0514,17.7,12.33,47.84626,-54.09684
2022-07-17 17:39:01+00:00,265.4931,17.7,12.33,47.84626,-54.09684
2022-07-17 17:49:01+00:00,256.2481,17.69,12.33,47.84626,-54.09684
2022-07-17 17:59:01+00:00,245.3881,17.67,12.33,47.84626,-54.09684
2022-07-17 18:09:01+00:00,234.6581,17.7,12.33,47.84626,-54.09684
2022-07-17 18:19:00+00:00,222.9048,17.73,12.25,47.84626,-54.09684
2022-07-17 18:29:00+00:00,211.4348,17.79,12.25,47.84626,-54.09684
2022-07-17 18:39:00+00:00,202.1181,17.8,12.25,47.84626,-54.09684
2022-07-17 18:49:00+00:00,195.9948,17.79,12.25,47.84626,-54.09684
2022-07-17 18:59:00+00:00,192.3031,17.7,12.25,47.84626,-54.09684
2022-07-17 19:09:00+00:00,188.7148,17.7,12.25,47.84626,-54.09684
2022-07-17 19:19:00+00:00,183.9698,17.68,12.17,47.84626,-54.09684
2022-07-17 19:29:00+00:00,180.3631,17.6,12.17,47.84626,-54.09684
2022-07-17 19:39:00+00:00,178.6581,17.5,12.17,47.84626,-54.09684
2022-07-17 19:49:00+00:00,175.1365,17.4,12.17,47.84626,-54.09684
2022-07-17 19:59:00+00:00,173.1015,17.39,12.17,47.84626,-54.09684
2022-07-17 20:09:00+00:00,174.4948,17.4,12.17,47.84626,-54.09684
2022-07-17 20:19:00+00:00,176.7664,17.4,12.17,47.84626,-54.09684
2022-07-17 20:29:00+00:00,174.6964,17.5,12.17,47.84626,-54.09684
2022-07-17 20:39:00+00:00,173.2281,17.6,12.17,47.84626,-54.09684
2022-07-17 20:49:00+00:00,176.8432,17.68,12.17,47.84626,-54.09684
2022-07-17 20:59:00+00:00,178.7348,17.7,12.17,47.84626,-54.09684
2022-07-17 21:09:00+00:00,180.8064,17.7,12.17,47.84626,-54.09684
2022-07-17 21:19:00+00:00,184.1798,17.71,12.17,47.84626,-54.09684
2022-07-17 21:29:00+00:00,186.6598,17.75,12.17,47.84626,-54.09684
2022-07-17 21:39:00+00:00,189.0231,17.8,12.17,47.84626,-54.09684
2022-07-17 21:49:00+00:00,193.6365,17.8,12.17,47.84626,-54.09684
2022-07-17 21:59:00+00:00,196.8698,17.87,12.17,47.84626,-54.09684
2022-07-17 22:09:00+00:00,197.6148,17.93,12.17,47.84626,-54.09684
2022-07-17 22:19:00+00:00,203.0848,18.03,12.17,47.84626,-54.09684
2022-07-17 22:29:00+00:00,208.8065,18.1,12.17,47.84626,-54.09684
2022-07-17 22:39:00+00:00,210.4232,18.17,12.17,47.84626,-54.09684
2022-07-17 22:49:00+00:00,214.8214,18.19,12.17,47.84626,-54.09684
2022-07-17 22:59:00+00:00,221.0831,18.1,12.17,47.84626,-54.09684
2022-07-17 23:09:00+00:00,226.4315,18.14,12.17,47.84626,-54.09684
2022-07-17 23:19:01+00:00,232.7848,18.2,12.09,47.84626,-54.09684
2022-07-17 23:29:01+00:00,238.8164,18.1,12.09,47.84626,-54.09684
2022-07-17 23:39:01+00:00,243.168,17.94,12.09,47.84626,-54.09684
2022-07-17 23:49:01+00:00,249.2947,17.8,12.09,47.84626,-54.09684
2022-07-17 23:59:01+00:00,257.5181,17.68,12.09,47.84626,-54.09684
